Location: Unspecified
(0.0000°N, 0.0000°E)
Time: 07:47:05
(UTC+00:00)

N. Korean satellite - Pass Details

Date: 01 July 2020
Orbit: 453 x 505 km, 97.2° (Epoch: 25 October)

Event Time Altitude Azimuth Distance (km) Brightness Sun altitude
Rises 05:04:06 0° 17° (NNE) 2,458 10.8 -13.7°
Reaches altitude 10° 05:06:09 10° 21° (NNE) 1,584 9.8 -13.3°
Maximum altitude 05:09:29 57° 101° (E) 537 7.0 -12.5°
Drops below altitude 10° 05:12:49 10° 180° (S) 1,585 8.9 -11.7°
Enters shadow 05:15:21 -2° 185° (S) 2,662 10.0 -11.2°
